Volver al catálogo

FENGYUN 1C DEB

ActivoPO
NORAD 38144·DEBRIS·🇨🇳 China

Lanzado May 10, 1999 desde Taiyuan Satellite Launch Center

Loading…

Próximos Pases (próximas 24 horas)

TLE

ObsoletoSource: Space-Track

Época: Aug 26, 2026, 06:06 UTC

1 38144U 99025EQR 26238.25434255  .00001015  00000-0  10841-2 0  9999
2 38144  98.9863  46.6094 0287987 247.9915 109.0403 13.59614696645228

Sigue FENGYUN 1C DEB en tiempo real con AllMySat

Download on the App Store